Overview Statistics Trail Chart Weather Telemetry Raw packets
 

This is the latest recevied weather packets stored in our database for station/object OH6GKW. If no packets are shown the sender has not sent any weather packets the latest 10 day(s).

<< 107 108 109 110 111 112 113 >>
Time Temp. Humidity Pressure Rain* Wind** Luminosity Snow
1787851717 16.11° C 76% 1023.8 hPa 0 mm - 23 W/m² -
1787851410 16.67° C 75% 1023.8 hPa 0 mm - 30 W/m² -
1787851120 17.22° C 73% 1023.8 hPa 0 mm - 33 W/m² -
1787850812 17.78° C 71% 1023.8 hPa 0 mm - 55 W/m² -
1787850510 17.78° C 68% 1023.8 hPa 0 mm - 62 W/m² -
1787850225 18.33° C 67% 1023.8 hPa 0 mm - 70 W/m² -
1787849910 18.89° C 66% 1023.8 hPa 0 mm - 81 W/m² -
1787849634 18.89° C 64% 1023.8 hPa 0 mm - 86 W/m² -
1787849326 19.44° C 63% 1023.8 hPa 0 mm - 91 W/m² -
1787849019 19.44° C 59% 1024 hPa 0 mm - 104 W/m² -
1787848712 20° C 60% 1024 hPa 0 mm - 106 W/m² -
1787848411 20° C 58% 1024 hPa 0 mm - 114 W/m² -
1787848125 20° C 56% 1024 hPa 0 mm - 114 W/m² -
1787847813 20° C 55% 1024 hPa 0 mm - 141 W/m² -
1787847524 20° C 54% 1024 hPa 0 mm - 148 W/m² -
1787847228 20° C 54% 1024 hPa 0 mm - 158 W/m² -
1787846937 20.56° C 54% 1024 hPa 0 mm - 167 W/m² -
1787846632 20° C 52% 1024 hPa 0 mm - 176 W/m² -
1787846324 20.56° C 52% 1024.1 hPa 0 mm - 187 W/m² -
1787846018 20.56° C 49% 1024.1 hPa 0 mm - 195 W/m² -
1787845712 20.56° C 50% 1024.1 hPa 0 mm - 204 W/m² -
1787845427 20.56° C 50% 1024.2 hPa 0 mm - 213 W/m² -
1787845119 20.56° C 49% 1024.2 hPa 0 mm - 223 W/m² -
1787844814 20.56° C 48% 1024.2 hPa 0 mm - 236 W/m² -
1787844534 20.56° C 49% 1024.3 hPa 0 mm - 243 W/m² -

* Rain since midnight (hover to see other rain measurements)
** Current wind speed in m/s (hover to see current wind gust speed)